Location: Arcones
(41.1182°N, 3.7238°W)
Time: 21:29:21
(UTC+00:00)

Daily predictions for brighter satellites

Satellite Brightness Start Highest point End
(mag) Time Altitude Azimuth Time Altitude Azimuth Time Altitude Azimuth
MOS 1 Rocket 4.3 17:11:34 10° ESE 17:15:38 27° ENE 17:19:55 10° N
Cosmos 1867 4.1 17:10:58 10° NNW 17:16:01 37° NE 17:21:01 10° ESE
Cosmos 1782 3.2 17:17:33 10° SSW 17:21:05 57° W 17:24:38 10° N
USA 307 2.2 17:21:45 10° W 17:22:30 13° NW 17:23:03 10° NNW
IRIDIUM 106 4.5 17:17:32 10° N 17:22:39 53° E 17:27:44 10° SSE
ARIANE 5 R/B 2.9 17:18:12 10° SE 17:22:56 41° ENE 17:27:43 10° N
Cosmos 1607 3.9 17:19:43 10° NNW 17:25:58 70° NE 17:32:15 10° SE
Cosmos 2084 Rocket 3.7 17:22:22 10° NNW 17:26:26 45° NE 17:30:28 10° ESE
SOZ 4.2 17:24:18 10° WSW 17:27:42 58° NW 17:29:40 11° NE
Cosmos 1825 Rocket 4.2 17:24:05 10° NNE 17:28:00 32° ENE 17:31:51 10° SE
Cosmos 2098 Rocket 3.5 17:25:13 10° SSW 17:29:12 67° W 17:33:58 10° N
Cosmos 1758 Rocket 4.0 17:27:04 10° NNW 17:31:18 65° W 17:35:31 10° S
Gbstr 26 Del rocket 3.0 17:31:59 10° WSW 17:36:11 63° NNW 17:39:37 12° NE
NOSS 3-2 (C) 3.6 17:31:32 10° SW 17:36:23 57° NW 17:42:09 10° NNE
UNK 3.7 17:32:27 10° NNE 17:37:04 90° WSW 17:41:36 10° SSW
SPOT 1/Viking Rocket 4.3 17:35:35 10° SE 17:40:01 29° ENE 17:44:28 10° N
SMAP 3.0 17:37:14 10° SSE 17:41:53 83° ENE 17:46:33 10° N
Meteor 1-20 Rocket 4.1 17:37:55 10° N 17:43:25 84° E 17:48:53 10° S
Cosmos 724 4.4 17:37:34 10° NNW 17:43:36 85° WSW 17:49:27 10° SSE
Cosmos 1076 Rocket 4.2 17:42:12 10° NNE 17:46:05 32° ENE 17:49:57 10° SE
Landsat 7 3.7 17:42:03 10° SSE 17:46:41 72° ENE 17:51:20 10° N
IRS-P3 4.3 17:42:21 10° SE 17:47:27 49° ENE 17:52:34 10° N
Cosmos 2058 Rocket 4.1 17:43:55 10° SE 17:47:33 25° E 17:50:44 12° NE
CZ-4C R/B 3.0 17:41:34 10° NNW 17:48:51 78° NE 17:57:45 10° SE
Cosmos 2266 Rocket 3.9 17:42:46 10° N 17:48:56 86° E 17:54:58 10° S
COSMO-SKYMED 1 3.7 17:49:12 16° ENE 17:51:06 22° E 17:54:18 10° SE
Cosmos 783 Rocket 4.5 17:46:01 10° NNW 17:51:20 80° ENE 17:56:37 10° SSE
Cosmos 2297 Rocket 2.8 17:48:42 10° NNW 17:54:17 60° WSW 17:59:49 10° S
Cosmos 1606 Rocket 3.6 17:54:07 10° S 17:58:31 83° W 18:02:58 10° N
BlueWalker 3 4.3 17:57:04 10° WNW 18:00:02 24° SW 18:03:00 10° S
ATLAS CENTAUR R/B 3.8 17:58:15 10° WNW 18:00:37 19° WSW 18:02:54 10° SSW
Cosmos 1538 Rocket 4.5 17:56:32 10° N 18:01:27 37° ENE 18:06:21 10° SE
EXPRESS MD2 2.5 17:59:19 10° SW 18:01:42 63° SE 18:03:06 28° ENE
SAR-Lupe-3 3.4 18:05:01 30° NNE 18:06:04 72° ESE 18:08:33 10° S
AQUARIUS 4.1 18:04:31 10° SSE 18:08:56 89° NE 18:13:21 10° NNW
Resurs 1-3 4.2 18:06:56 10° SE 18:10:46 33° ENE 18:14:38 10° N
BREEZE-M DEB (TANK) 2.9 18:10:28 10° WNW 18:11:57 21° N 18:12:05 21° N
Cosmos 2219 3.8 18:09:13 10° N 18:14:26 34° ENE 18:17:57 18° ESE
Cosmos 1980 Rocket 2.1 18:09:32 10° SSW 18:15:10 72° ESE 18:19:44 16° NNE
Hubble Space Telescope 3.2 18:15:08 10° S 18:15:42 10° S 18:16:15 10° SSE
CZ-2D R/B 4.0 18:15:26 10° S 18:18:26 43° W 18:21:27 10° NNW
Meteor 2-20 4.4 18:12:50 10° S 18:18:59 80° E 18:25:10 10° N
SL-16 R/B 4.4 18:14:33 10° N 18:19:34 26° WNW 18:24:33 10° WSW
NOSS 2-3 (C) 3.6 18:18:47 10° SW 18:22:12 53° NW 18:23:55 26° NNE
Cosmos 1726 Rocket 4.1 18:17:48 10° SSW 18:22:24 64° W 18:26:59 10° N
Spot 4 Rocket 4.1 18:17:36 10° SE 18:22:30 50° ENE 18:27:26 10° N
Meteor 1-5 Rocket 4.1 18:18:38 10° N 18:24:02 88° W 18:29:33 10° S
Cosmos 1898 Rocket 3.4 18:22:21 10° S 18:27:24 62° ESE 18:30:11 26° NE
Cosmos 2369 3.9 18:22:40 10° S 18:28:11 51° ESE 18:30:42 30° NE
Cosmos 2263 Rocket 2.1 18:23:37 10° NNW 18:29:16 64° ENE 18:34:54 10° SE
Okean 1 3.2 18:27:08 10° S 18:30:23 51° ESE 18:30:23 51° ESE
Cosmos 1244 Rocket 4.5 18:27:57 10° N 18:34:07 57° E 18:40:11 10° SSE
YAOGAN 1 2.4 18:30:07 10° SSE 18:34:18 62° ENE 18:38:31 10° N
Cosmos-2242 2.8 18:30:17 10° S 18:34:30 76° E 18:36:35 29° NNE
USA 238 DEB 3.6 18:30:51 10° SW 18:36:53 74° NW 18:41:14 22° NNE
USA 238 3.6 18:30:57 10° SW 18:36:59 75° NW 18:41:19 23° NNE
Cosmos 372 Rocket 4.0 18:34:42 10° SSW 18:39:52 82° WNW 18:43:10 23° NNE
SKYMED 2 3.9 18:36:02 13° N 18:39:54 67° WNW 18:44:12 10° SSW
Meteor 2-20 Rocket 4.3 18:34:26 10° S 18:40:43 83° E 18:46:47 10° N
USA 215 4.5 18:41:10 22° NNE 18:42:46 24° N 18:47:44 10° NW
Cosmos 2227 Rocket 2.9 18:40:13 10° NNW 18:45:42 53° WSW 18:51:09 10° S
Cosmos 1937 Rocket 3.4 18:41:02 10° S 18:46:10 67° ESE 18:47:30 47° NE
SL-08 R/B 4.4 18:42:32 10° N 18:48:49 63° E 18:55:05 10° SSE
Cosmos 2333 Rocket 4.3 18:50:43 10° SSE 18:51:19 12° SSE 18:51:19 12° SSE
Aureole 1 Rocket 4.1 18:52:24 10° SW 18:56:34 49° WNW 19:00:03 20° N
Meteor 2-10 4.3 18:52:37 10° NNW 18:58:02 72° W 19:03:34 10° S
Cosmos 967 Rocket 4.4 18:55:32 10° SSW 19:01:51 78° ESE 19:03:36 50° NE
Helios 1A Rocket 4.1 19:05:35 29° SW 19:05:35 29° SW 19:07:26 10° SSW
NOAA 6 3.9 19:04:15 10° SSE 19:09:21 87° WSW 19:14:29 10° NNW
COSMOS 2455 2.8 19:07:07 10° SSW 19:12:49 65° SE 19:12:49 65° SE
IRAS Rocket 4.5 19:12:01 10° S 19:17:28 66° WSW 19:22:55 10° NNW
COSMO-SKYMED 1 4.2 19:25:32 27° NW 19:26:24 29° WNW 19:29:58 10° SW
Meteor 2-6 Rocket 4.2 19:22:13 10° SSW 19:27:50 78° W 19:27:57 78° WNW
Cosmos 2082 3.9 19:27:26 10° NNW 19:32:39 69° WNW 19:32:39 69° WNW
Cosmos 2237 4.4 19:29:45 10° SSW 19:35:09 67° W 19:35:09 67° W
SL-16 R/B 3.5 19:35:22 10° SSW 19:38:03 29° SSW 19:38:03 29° SSW
Cosmos 1980 Rocket 4.4 19:55:49 10° W 19:59:43 19° NW 20:01:30 16° NNW
